This demonstration page uses our WeatherBlox Daily Observations layout. Learn more.

40.92945, -100.16068

Hourly Observations for June 23, 2015

Temp ( °F °C ) Dew Point ( °F °C ) Humidity (%) Winds ( mph kmh ) Pressure ( in mb ) Visibility ( mi km ) Precip ( " mm )
12:35 am 00:35 Clear 59 15.2 53 11.7 80 80 NNE 6 9 30.06 1018 10 16.0934 N/A
12:55 am 00:55 Clear 59 14.8 53 11.5 81 81 NNE 8 13 30.09 1019 10 16.0934 N/A
1:15 am 01:15 Clear 58 14.6 53 11.5 82 82 NNE 6 9 30.09 1019 10 16.0934 N/A
1:35 am 01:35 Clear 57 13.8 53 11.4 86 86 NNE 5 7 30.12 1020 10 16.0934 N/A
1:55 am 01:55 Clear 57 13.8 52 11.3 85 85 NNE 8 13 30.12 1020 10 16.0934 N/A
2:15 am 02:15 Clear 57 14 53 11.5 85 85 NE 6 9 30.12 1020 10 16.0934 N/A
2:35 am 02:35 Clear 56 13.6 52 11.1 85 85 NE 5 7 30.12 1020 10 16.0934 N/A
2:55 am 02:55 Clear 56 13.5 52 11 85 85 E 5 7 30.12 1020 10 16.0934 N/A
3:15 am 03:15 Clear 57 13.9 52 11 83 83 Calm 30.12 1020 10 16.0934 N/A
3:35 am 03:35 Clear 57 13.7 52 11 84 84 Calm 30.12 1020 10 16.0934 N/A
3:55 am 03:55 Clear 56 13.3 52 11.1 87 87 Calm 30.15 1021 10 16.0934 N/A
4:15 am 04:15 Partly Cloudy 55 13 52 11.3 90 90 Calm 30.15 1021 10 16.0934 N/A
4:35 am 04:35 Partly Cloudy 57 13.7 54 12.3 91 91 Calm 30.12 1020 10 16.0934 N/A
4:55 am 04:55 Partly Cloudy 57 14.1 55 12.9 93 93 Calm 30.15 1021 10 16.0934 N/A
5:15 am 05:15 Partly Cloudy 58 14.6 56 13.2 91 91 Calm 30.12 1020 10 16.0934 N/A
5:35 am 05:35 Partly Cloudy 58 14.4 55 12.8 90 90 Calm 30.15 1021 10 16.0934 N/A
5:55 am 05:55 Partly Cloudy 58 14.6 55 12.8 89 89 ESE 5 7 30.12 1020 10 16.0934 N/A
6:15 am 06:15 Partly Cloudy 59 15 54 12.1 83 83 ESE 5 7 30.12 1020 10 16.0934 N/A
6:35 am 06:35 Partly Cloudy 59 15 54 12.1 83 83 SE 5 7 30.12 1020 10 16.0934 N/A
6:55 am 06:55 Partly Cloudy 60 15.4 55 12.7 84 84 SE 3 6 30.12 1020 10 16.0934 N/A
7:15 am 07:15 Partly Cloudy 61 16.2 55 13 81 81 SE 3 6 30.12 1020 10 16.0934 N/A
7:35 am 07:35 Sunny 62 16.7 56 13.2 80 80 SE 3 6 30.12 1020 10 16.0934 N/A
7:55 am 07:55 Sunny 64 17.5 55 13 75 75 SE 6 9 30.09 1019 10 16.0934 N/A
8:15 am 08:15 Partly Cloudy 64 18 56 13.1 73 73 SSE 7 11 30.09 1019 10 16.0934 N/A
8:35 am 08:35 Partly Cloudy 65 18.4 55 13 71 71 SSE 7 11 30.15 1021 10 16.0934 N/A
8:55 am 08:55 Partly Cloudy 66 19 55 13 68 68 SE 9 15 30.09 1019 10 16.0934 N/A
9:15 am 09:15 Sunny 68 19.8 56 13.3 66 66 SE 10 17 30.09 1019 10 16.0934 N/A
9:35 am 09:35 Sunny 68 20.2 55 13 63 63 SE 12 19 30.12 1020 10 16.0934 N/A
9:55 am 09:55 Partly Cloudy 68 20.1 55 13 64 64 SE 10 17 30.12 1020 10 16.0934 N/A
10:15 am 10:15 Mostly Cloudy 68 20 56 13.3 65 65 SE 8 13 30.12 1020 10 16.0934 N/A
10:35 am 10:35 Cloudy 68 20 57 13.7 67 67 ESE 8 13 30.09 1019 10 16.0934 N/A
10:55 am 10:55 Cloudy 68 19.9 57 13.7 68 68 E 8 13 30.09 1019 10 16.0934 N/A
11:15 am 11:15 Mostly Cloudy 68 19.9 56 13.5 67 67 ESE 9 15 30.12 1020 10 16.0934 N/A
11:35 am 11:35 Cloudy 69 20.3 57 14.1 68 68 E 6 9 30.12 1020 10 16.0934 N/A
11:55 am 11:55 Mostly Cloudy 69 20.5 58 14.4 68 68 E 5 7 30.12 1020 10 16.0934 N/A
12:15 pm 12:15 Mostly Cloudy 69 20.7 58 14.2 66 66 ESE 7 11 30.12 1020 10 16.0934 N/A
12:35 pm 12:35 Cloudy 70 21.1 58 14.5 66 66 E 8 13 30.09 1019 10 16.0934 N/A
12:55 pm 12:55 Cloudy 70 21 58 14.7 67 67 E 9 15 30.09 1019 10 16.0934 N/A
1:15 pm 13:15 Cloudy 71 21.5 58 14.3 64 64 ESE 10 17 30.06 1018 10 16.0934 N/A
1:35 pm 13:35 Mostly Cloudy 73 22.5 58 14.7 61 61 ESE 12 19 30.03 1017 10 16.0934 N/A
1:55 pm 13:55 Partly Cloudy 73 22.6 60 15.4 64 64 ESE 10 17 30.03 1017 10 16.0934 N/A
2:15 pm 14:15 Sunny 75 23.7 59 14.9 58 58 E 9 15 30.03 1017 10 16.0934 N/A
2:35 pm 14:35 Partly Cloudy 74 23.2 57 13.9 56 56 ESE 12 19 30.03 1017 10 16.0934 N/A
2:55 pm 14:55 Partly Cloudy 74 23.5 59 15.1 59 59 E 13 20 30.03 1017 10 16.0934 N/A
3:15 pm 15:15 Partly Cloudy 74 23.1 57 14 57 57 ESE 10 17 30 1016 10 16.0934 N/A
3:35 pm 15:35 Partly Cloudy 73 23 56 13.6 56 56 ESE 13 20 30.03 1017 10 16.0934 N/A
3:55 pm 15:55 Mostly Cloudy 73 23 58 14.4 59 59 ESE 12 19 30 1016 10 16.0934 N/A
4:15 pm 16:15 Mostly Cloudy 75 23.7 60 15.4 60 60 E 13 20 30 1016 10 16.0934 N/A
4:35 pm 16:35 Partly Cloudy 76 24.6 59 15.1 56 56 ESE 14 22 29.97 1015 10 16.0934 N/A
4:55 pm 16:55 Sunny 77 25 59 14.8 53 53 SE 15 24 29.97 1015 10 16.0934 N/A
5:15 pm 17:15 Sunny 76 24.7 58 14.6 53 53 SE 13 20 29.97 1015 10 16.0934 N/A
5:35 pm 17:35 Sunny 76 24.6 59 14.8 55 55 E 14 22 29.94 1014 10 16.0934 N/A
5:55 pm 17:55 Sunny 75 24.1 59 15 57 57 ESE 12 19 29.94 1014 10 16.0934 N/A
6:15 pm 18:15 Sunny 75 24 59 14.8 57 57 E 12 19 29.94 1014 10 16.0934 N/A
6:35 pm 18:35 Sunny 75 23.8 58 14.2 55 55 E 15 24 29.94 1014 10 16.0934 N/A
6:55 pm 18:55 Sunny 74 23.4 57 14 56 56 E 13 20 29.97 1015 10 16.0934 N/A
7:15 pm 19:15 Sunny 74 23.2 57 13.9 56 56 E 16 26 29.97 1015 10 16.0934 N/A
7:35 pm 19:35 Sunny 73 23 57 13.9 57 57 E 14 22 29.97 1015 10 16.0934 N/A
7:55 pm 19:55 Sunny 73 22.5 57 13.8 58 58 E 16 26 29.94 1014 10 16.0934 N/A
8:15 pm 20:15 Sunny 72 22.1 57 14.1 61 61 E 12 19 29.97 1015 10 16.0934 N/A
8:35 pm 20:35 Sunny 71 21.5 58 14.7 65 65 E 12 19 29.94 1014 7 11.26538 N/A
8:55 pm 20:55 Sunny 70 20.9 59 15 69 69 E 12 19 29.97 1015 10 16.0934 N/A
9:15 pm 21:15 Clear 68 20.2 59 14.8 71 71 E 10 17 30 1016 10 16.0934 N/A
9:35 pm 21:35 Clear 68 20 59 14.8 72 72 E 10 17 29.97 1015 10 16.0934 N/A
9:55 pm 21:55 Clear 67 19.5 59 14.8 74 74 E 12 19 29.97 1015 10 16.0934 N/A
10:15 pm 22:15 Clear 67 19.2 59 14.9 76 76 E 12 19 29.97 1015 10 16.0934 N/A
10:35 pm 22:35 Clear 66 18.7 58 14.7 78 78 E 8 13 29.97 1015 10 16.0934 N/A
10:55 pm 22:55 Clear 65 18.1 59 14.9 82 82 E 5 7 29.97 1015 10 16.0934 N/A
11:15 pm 23:15 Clear 64 17.6 59 15 85 85 E 3 6 29.97 1015 10 16.0934 N/A
11:35 pm 23:35 Clear 64 17.6 59 15 85 85 E 6 9 29.97 1015 10 16.0934 N/A
11:55 pm 23:55 Clear 63 17 59 14.8 87 87 E 5 7 29.97 1015 10 16.0934 N/A

Powered by AerisWeather